IUS R/B(1), 21640

Orbit data source: Space-Track

IUS R/B(1), 21640 is space debris in HEO originally from a launch on Fri, 02 Aug 1991 UTC launched from the Air Force Eastern Test Range (AFETR). Debris objects in space refer to the collection of defunct objects orbiting the Earth. Examples of debris include non-operational satellites, rocket bodies, and fragments generated from explosions, collisions, or faulty payload assembly.

Loading next visibility...
Identifier
21640, 1991-054C
Orbit
HEO
Country
Flag of USUS
Related business
Manufacturer
UTC CSD
Mission
Spacecraft
Bus & Motor
ORBUS 21, Unknown motor
Mass
1,164 kg wet, ~1,164 kg dry
Launch date (UTC)
1991-08-02 (34 years ago)
Launch vehicle
Unknown
Launch site
Air Force Eastern Test Range (AFETR)
Object type
Payload
Rocket body
Debris
Shape & HBR
Cyl, Unknown HBR
Radar Cross Section
7.708 m², Large (>1 m²)

Expand to show TLE details & history
Last TLE update: 1 day ago

TLE from 1 day ago
0 IUS R/B(1)
1 21640U 91054C   25348.54570819  .00001715  00000-0  61041-3 0  9992
2 21640  26.3791 134.5041 6641218  54.3591 350.6959  3.10138431334276
Epoch: 2025-12-14T13:05Z
TLE epoch observation values (Epoch: 2025-12-14T13:05:49.187Z)
Latitude
0.00001°
Longitude
-145.48542°
Altitude
1,636.123 km
Speed
8.911 km/s
True Right ascension
08h 57m 42s
True Declination
0° 00' 00"
Sunlit
Object was in daylight at epoch
Visualization orbit readout
Latitude
Unknown
Longitude
Unknown
Altitude
Unknown
Speed
Unknown
Apparent Right ascension
Unknown
Apparent Declination
Unknown
Sunlit
N/A
Visualization observer readout
Local Sidereal Time
13:24:47
Azimuth
Unknown
Elevation
Unknown
Doppler factor
Unknown
Orbital elements
Apogee altitude
26,681.532 km
Perigee altitude
294.465 km
Semi-major axis
19,866.135 km
Eccentricity
0.66412
Inclination
26.3791°
RAAN
134.5041°
Arg. of periapsis
54.3591°
True anomaly
305.67443°
Mean anomaly
350.6959°
Eccentric anomaly
334.0379°
Mean motion
0.77513 °/min
Orbital period
464.44 mins
BSTAR
0.00061041
Loading maneuver chart data...
Computing Atmospheric mass density...
Loading historical data...
Loading historical data...
Loading historical data...
Loading historical data...
Loading historical data...
Loading historical data...
Loading historical data...
Other satellites on launch #54 in the year 1991 (1991-08-02 UTC)

Documentation

Showing up to 5 results
|